Grand Island, NE

3:47 PM CST on November 20, 2019 (GMT -0600)
Central Nebraska Regional

Weather History for KGRI - August, 2019

Change the Weather History Date:

Thursday, August 1, 2019

  Actual Average Record
Temperature  
Mean Temperature 73 °F 76 °F  
Max Temperature 81 °F 87 °F 106 °F (1935)
Min Temperature 65 °F 65 °F 51 °F (1995)
Degree Days  
Heating Degree Days 0 0  
Month to date heating degree days 0 0  
Since 1 June heating degree days 14 26  
Since 1 July heating degree days 0 2  
Cooling Degree Days 8 11  
Month to date cooling degree days 8 11  
Year to date cooling degree days 687 638  
Since 1 June cooling degree days 629 573  
Growing Degree Days 22 (Base 50)    
Moisture  
Dew Point 66 °F    
Average Humidity 81    
Maximum Humidity 93    
Minimum Humidity 69    
Precipitation  
Precipitation 0.00 in 0.11 in 2.14 in (1970)
Month to date precipitation 0.00 0.11  
Year to date precipitation 21.64 17.76  
Snow  
Snow 0.00 in 0.00 in - ()
Month to date snowfall 0.0 0.0  
Since 1 June snowfall 0.0 0.0  
Since 1 July snowfall 0.0 0.0  
Snow Depth 0.00 in    
Sea Level Pressure  
Sea Level Pressure 30.07 in    
Wind  
Wind Speed 10 mph (ESE)    
Max Wind Speed 17 mph    
Max Gust Speed 22 mph    
Visibility 10 miles    
Events      
T = Trace of Precipitation, MM = Missing Value Source: NWS Daily Summary

Daily Weather History Graph

Daily Weather History Graph

Search for Another Location

Airport or City:

Astronomy

Aug. 01, 2019 Rise Set
Actual Time 6:29 AM CDT 8:49 PM CDT
Civil Twilight 5:58 AM CDT 9:20 PM CDT
Nautical Twilight 5:19 AM CDT 9:58 PM CDT
Astronomical Twilight 4:37 AM CDT 10:40 PM CDT
Moon 6:55 AM CDT (8/1) 9:37 PM CDT (8/1)
Length of Visible Light 15h 22m
Length of Day
14h 20m
New Moon, 1% of the Moon is Illuminated
Aug 1
New Moon
Aug 7
First Quarter
Aug 15
Full
Aug 23
Last Quarter
Aug 30
New

Hourly Weather History & Observations

Time (CDT) Temp. Heat Index Dew Point Humidity Pressure Visibility Wind Dir Wind Speed Gust Speed Precip Events Conditions
12:53 AM 69.1 °F - 64.0 °F 84% 30.03 in 10.0 mi East 6.9 mph - N/A   Clear
1:53 AM 68.0 °F - 63.0 °F 84% 30.03 in 10.0 mi East 6.9 mph - N/A   Clear
2:53 AM 66.9 °F - 62.1 °F 84% 30.04 in 10.0 mi East 6.9 mph - N/A   Clear
3:53 AM 66.0 °F - 62.1 °F 87% 30.03 in 10.0 mi East 6.9 mph - N/A   Clear
4:53 AM 64.9 °F - 62.1 °F 90% 30.04 in 10.0 mi East 8.1 mph - N/A   Partly Cloudy
5:16 AM 66.0 °F - 62.1 °F 87% 30.07 in 10.0 mi East 8.1 mph - N/A   Mostly Cloudy
5:44 AM 66.0 °F - 62.1 °F 87% 30.08 in 10.0 mi East 9.2 mph - N/A   Mostly Cloudy
5:53 AM 66.0 °F - 62.1 °F 87% 30.05 in 10.0 mi East 8.1 mph - N/A   Mostly Cloudy
6:12 AM 66.0 °F - 62.1 °F 87% 30.09 in 10.0 mi East 8.1 mph - N/A   Overcast
6:53 AM 66.0 °F - 63.0 °F 90% 30.08 in 9.0 mi East 8.1 mph - N/A   Overcast
7:53 AM 66.9 °F - 64.0 °F 90% 30.09 in 8.0 mi ESE 9.2 mph - N/A   Overcast
8:24 AM 66.9 °F - 64.0 °F 90% 30.13 in 7.0 mi East 8.1 mph - N/A   Overcast
8:53 AM 68.0 °F - 64.0 °F 87% 30.09 in 8.0 mi East 10.4 mph - N/A   Overcast
9:09 AM 68.0 °F - 64.0 °F 87% 30.12 in 9.0 mi ESE 10.4 mph - N/A   Overcast
9:53 AM 70.0 °F - 64.9 °F 84% 30.09 in 10.0 mi ESE 9.2 mph - N/A   Overcast
10:53 AM 71.1 °F - 64.9 °F 81% 30.09 in 10.0 mi ESE 12.7 mph - N/A   Overcast
11:53 AM 73.0 °F - 66.0 °F 79% 30.10 in 10.0 mi ESE 11.5 mph - N/A   Overcast
12:26 PM 73.9 °F - 66.0 °F 76% 30.12 in 10.0 mi ESE 12.7 mph - N/A   Overcast
12:53 PM 75.0 °F - 66.9 °F 76% 30.09 in 10.0 mi ESE 9.2 mph - N/A   Overcast
1:53 PM 77.0 °F - 68.0 °F 74% 30.08 in 10.0 mi ESE 10.4 mph - N/A   Overcast
2:53 PM 79.0 °F - 70.0 °F 74% 30.07 in 10.0 mi East 9.2 mph - N/A   Overcast
3:04 PM 79.0 °F - 69.1 °F 72% 30.09 in 10.0 mi East 9.2 mph - N/A   Overcast
3:50 PM 80.6 °F 83.9 °F 69.8 °F 70% 30.09 in 10.0 mi SE 9.2 mph - N/A   Overcast
3:53 PM 81.0 °F 84.1 °F 69.1 °F 67% 30.06 in 10.0 mi ESE 9.2 mph - N/A   Overcast
4:53 PM 80.1 °F 83.2 °F 70.0 °F 71% 30.05 in 10.0 mi East 9.2 mph - N/A   Overcast
5:53 PM 79.0 °F - 70.0 °F 74% 30.06 in 10.0 mi East 12.7 mph - N/A   Overcast
6:53 PM 80.1 °F 83.2 °F 70.0 °F 71% 30.04 in 10.0 mi ESE 13.8 mph - N/A   Mostly Cloudy
7:53 PM 79.0 °F - 70.0 °F 74% 30.06 in 10.0 mi East 10.4 mph 18.4 mph N/A   Overcast
8:53 PM 75.9 °F - 70.0 °F 82% 30.05 in 10.0 mi ESE 8.1 mph - N/A   Scattered Clouds
9:53 PM 75.9 °F - 70.0 °F 82% 30.08 in 10.0 mi ESE 8.1 mph - N/A   Clear
10:53 PM 75.0 °F - 69.1 °F 82% 30.09 in 10.0 mi ESE 10.4 mph - N/A   Clear
11:53 PM 73.9 °F - 69.1 °F 85% 30.07 in 10.0 mi SE 12.7 mph 19.6 mph N/A   Partly Cloudy